Location: Ch�ze
(42.9000°N, 0.0333°W)
Time: 23:48:04
(UTC+00:00)

Cosmos 1553 Rocket - Pass Details

Date: 24 January 2021
Orbit: 941 x 1008 km, 82.9° (Epoch: 24 February)

Event Time Altitude Azimuth Distance (km) Brightness Sun altitude
Rises 19:24:26 0° 350° (N) 3,747 7.1 -25.8°
Reaches altitude 10° 19:26:59 10° 350° (N) 2,790 6.5 -26.3°
Maximum altitude 19:33:24 78° 265° (W) 1,023 4.1 -27.5°
Drops below altitude 10° 19:39:41 10° 180° (S) 2,738 6.3 -28.6°
Sets 19:42:10 0° 179° (S) 3,674 7.0 -29.1°
